Weather in Nizwa

Oman     22°56′06″N   57°31′55″E
temp.,
°C
wind,
m/s
gust,
m/s
humid.,
%
clouds,
%
prec.,
mm/h
press.,
hPa
HPBL,
m
3 march, wed
wed301:00+16e11530 0.0 101723
04:00+14n11610 0.0 101623
07:00+16nnw00470 0.0 101723
10:00+26sw32230 0.0 1018953
13:00+30sw54160 0.0 10152368
16:00+30wsw751628 0.0 10133420
19:00+24wsw232598 0.0 101485
22:00+19nne123561 0.0 101523
4 march, thu
thu401:00+17ene11410 0.0 101523
04:00+16nnw01470 0.0 101423
07:00+17n11410 0.0 101623
10:00+28sw22190 0.0 10161245
13:00+31ssw34140 0.0 10143023
16:00+32sw54120 0.0 10113212
19:00+23nnw12230 0.0 101324
22:00+22e44260 0.0 101525
5 march, fri
fri501:00+19ene23350 0.0 101524
04:00+17nne11400 0.0 101323
07:00+19nne22310 0.0 101523
10:00+29ssw12160 0.0 10161427
13:00+32ssw44130 0.0 10132839
16:00+32ssw43120 0.0 10103303
19:00+24sse23210 0.0 101324
22:00+23ese56230 0.0 101570
6 march, sat
sat601:00+17ese11400 0.0 101423
04:00+16e01430 0.0 101323
07:00+18nne11340 0.0 101523
10:00+28sw22160 0.0 10161342
13:00+32wsw65100 0.0 10122927
16:00+32w87100 0.0 10102565
19:00+23n34220 0.0 101234
22:00+19n12270 0.0 101424
7 march, sun
sun701:00+17nnw11280 0.0 101324
04:00+16n12260 0.0 101223
07:00+18nne22230 0.0 101424
10:00+27ssw12110 0.0 10151277
13:00+30s3370 0.0 10112317
16:00+31wsw6430 0.0 10102050
19:00+19nne23270 0.0 101131
22:00+16e11300 0.0 101323